Location: Foulognes
(49.1413°N, 0.8183°W)
Time: 17:53:56
(UTC+00:00)

STARLINK-60 - Pass Details

Date: 21 October 2019
Orbit: 418 x 427 km, 53.0° (Epoch: 19 November)

Event Time Altitude Azimuth Distance (km) Brightness Sun altitude
Rises 16:40:04 0° 288° (WNW) 2,380 7.8 2.7°
Reaches altitude 10° 16:42:13 10° 295° (WNW) 1,517 6.7 2.3°
Drops below altitude 10° 16:48:50 10° 86° (E) 1,523 5.3 1.3°
Enters shadow 16:51:38 -2° 94° (E) 2,648 6.5 0.9°
Exits shadow 17:26:05 -75° 110° (ESE) 12,734 10.4 -4.6°
Sets 18:16:50 0° 294° (WNW) 2,441 8.2 -12.9°
Maximum altitude 18:22:27 60° 210° (SSW) 493 3.5 -13.8°
